Location: Newark
(7.1028°S, 35.3258°W)
Time: 13:02:30
(UTC+00:00)

Vanguard 3 - Pass Details

Date: 19 February 2020
Orbit: 508 x 3262 km, 33.3° (Epoch: 30 March)

Event Time Altitude Azimuth Distance (km) Brightness Sun altitude
Rises 06:41:35 0° 221° (SW) 3,580 - -26.0°
Reaches altitude 10° 06:45:08 10° 207° (SSW) 2,265 - -25.1°
Exits shadow 06:45:27 11° 204° (SSW) 2,154 9.2 -25.1°
Maximum altitude 06:48:57 22° 156° (SSE) 1,340 8.7 -24.2°
Drops below altitude 10° 06:52:00 10° 103° (ESE) 1,775 10.0 -23.5°
Sets 06:54:23 0° 85° (E) 2,600 11.0 -22.9°
